This is the latest recevied weather packets stored in our database for station/object IT9FBN-3. If no packets are shown the sender has not sent any weather packets the latest 10 day(s).
| Time | Temp. | Humidity | Pressure | Rain* | Wind** | Luminosity | Snow |
|---|---|---|---|---|---|---|---|
| 1778076003 | 21.67° C | 55% | 1014.5 hPa | 0 mm | - | - | - |
| 1778075703 | 21.67° C | 56% | 1014.5 hPa | 0 mm | - | - | - |
| 1778075403 | 21.11° C | 57% | 1014.5 hPa | 0 mm | - | - | - |
| 1778075103 | 21.67° C | 57% | 1014.5 hPa | 0 mm | - | - | - |
| 1778074803 | 21.67° C | 54% | 1014.6 hPa | 0 mm | - | - | - |
| 1778074503 | 21.67° C | 53% | 1014.6 hPa | 0 mm | - | - | - |
| 1778074203 | 21.67° C | 52% | 1014.5 hPa | 0 mm | - | - | - |
| 1778073903 | 21.67° C | 51% | 1014.5 hPa | 0 mm | - | - | - |
| 1778073603 | 21.67° C | 52% | 1014.6 hPa | 0 mm | - | - | - |
| 1778073303 | 21.67° C | 52% | 1014.7 hPa | 0 mm | - | - | - |
| 1778073003 | 21.67° C | 53% | 1014.7 hPa | 0 mm | - | - | - |
| 1778072703 | 21.11° C | 51% | 1014.7 hPa | 0 mm | - | - | - |
| 1778072403 | 21.11° C | 52% | 1014.6 hPa | 0 mm | - | - | - |
| 1778072103 | 21.11° C | 51% | 1014.8 hPa | 0 mm | - | - | - |
| 1778071803 | 21.11° C | 51% | 1014.7 hPa | 0 mm | - | - | - |
| 1778071503 | 21.11° C | 51% | 1014.7 hPa | 0 mm | - | - | - |
| 1778071203 | 21.11° C | 52% | 1014.8 hPa | 0 mm | - | - | - |
| 1778070903 | 21.11° C | 55% | 1014.9 hPa | 0 mm | - | - | - |
| 1778070603 | 20.56° C | 55% | 1014.9 hPa | 0 mm | - | - | - |
| 1778070303 | 20.56° C | 56% | 1014.8 hPa | 0 mm | - | - | - |
| 1778070003 | 20.56° C | 56% | 1014.9 hPa | 0 mm | - | - | - |
| 1778069703 | 20.56° C | 55% | 1014.9 hPa | 0 mm | - | - | - |
| 1778069403 | 20.56° C | 56% | 1015.1 hPa | 0 mm | - | - | - |
| 1778069103 | 20.56° C | 56% | 1015.1 hPa | 0 mm | - | - | - |
| 1778068803 | 21.11° C | 54% | 1015.1 hPa | 0 mm | - | - | - |
* Rain latest hour (hover to see other rain measurements)
** Current wind speed in m/s (hover to see current wind gust speed)